[Date Prev][Date Next][Thread Prev][Thread Next] - [Date Index][Thread Index][Author Index]
2 Line ISS Keps 7-2
- Subject: [sarex] 2 Line ISS Keps 7-2
- From: "Dave Larsen PhD" <doc@xxxxxxxxxxx>
- Date: Fri, 2 Jul 2004 03:51:27 -0700
ISS
1 25544U 98067A 04184.37475132 .00015464 00000-0 13303-3 0 1220
2 25544 51.6319 248.2829 0005400 314.8941 146.5355 15.69523403320700
----
Via the sarex mailing list at AMSAT.ORG courtesy of AMSAT-NA.
To unsubscribe, send "unsubscribe sarex" to Majordomo@amsat.org
AMSAT Home